Time,TemperatureF,DewpointF,PressureIn,WindDirection,WindDirectionDegrees,WindSpeedMPH,WindSpeedGustMPH,Humidity,HourlyPrecipIn,Conditions,Clouds,dailyrainin,SoftwareType,DateUTC
2013-03-01 00:04:00,36.3,7.8,29.71,NW,326,1.3,2.2,30,0.00,,,0.00,WSDL version 420,2013-03-01 06:04:00,
2013-03-01 00:10:00,36.1,8.0,29.71,NW,315,1.3,2.5,31,0.00,,,0.00,WSDL version 420,2013-03-01 06:10:00,
2013-03-01 00:16:00,35.8,8.1,29.71,NE,45,2.5,4.3,31,0.00,,,0.00,WSDL version 420,2013-03-01 06:16:00,
2013-03-01 00:22:00,35.6,7.9,29.71,NW,318,1.3,4.3,31,0.00,,,0.00,WSDL version 420,2013-03-01 06:22:00,
2013-03-01 00:28:00,35.6,7.9,29.71,WNW,293,1.3,2.5,31,0.00,,,0.00,WSDL version 420,2013-03-01 06:28:00,
2013-03-01 00:34:00,35.4,7.8,29.71,NW,315,0.9,2.2,31,0.00,,,0.00,WSDL version 420,2013-03-01 06:34:00,
2013-03-01 00:40:00,35.6,7.9,29.71,NW,315,0.9,2.0,31,0.00,,,0.00,WSDL version 420,2013-03-01 06:40:00,
2013-03-01 00:46:00,35.7,8.0,29.74,NW,315,1.2,2.0,31,0.00,,,0.00,WSDL version 420,2013-03-01 06:46:00,
2013-03-01 00:52:00,35.6,8.0,29.74,NW,326,1.5,3.4,31,0.00,,,0.00,WSDL version 420,2013-03-01 06:52:00,
2013-03-01 00:58:00,35.7,8.0,29.74,NW,306,1.4,3.4,31,0.00,,,0.00,WSDL version 420,2013-03-01 06:58:00,
2013-03-01 01:04:00,35.7,8.0,29.74,North,360,2.3,3.6,31,0.00,,,0.00,WSDL version 420,2013-03-01 07:04:00,
2013-03-01 01:10:00,35.8,8.1,29.74,NW,304,2.5,5.4,31,0.00,,,0.00,WSDL version 420,2013-03-01 07:10:00,
2013-03-01 01:16:00,35.8,8.1,29.74,North,351,2.4,4.7,31,0.00,,,0.00,WSDL version 420,2013-03-01 07:16:00,
2013-03-01 01:22:00,35.8,8.1,29.74,NNW,331,2.1,4.7,31,0.00,,,0.00,WSDL version 420,2013-03-01 07:22:00,
2013-03-01 01:28:00,35.8,8.1,29.74,NNW,338,2.1,4.3,31,0.00,,,0.00,WSDL version 420,2013-03-01 07:28:00,
2013-03-01 01:34:00,35.9,8.2,29.74,WNW,297,2.4,3.4,31,0.00,,,0.00,WSDL version 420,2013-03-01 07:34:00,
2013-03-01 01:40:00,35.8,8.1,29.74,NW,304,2.3,4.3,31,0.00,,,0.00,WSDL version 420,2013-03-01 07:40:00,
2013-03-01 01:46:00,35.8,8.1,29.74,NNW,330,2.5,4.3,31,0.00,,,0.00,WSDL version 420,2013-03-01 07:46:00,
2013-03-01 01:52:00,35.8,8.1,29.74,WNW,298,1.6,4.3,31,0.00,,,0.00,WSDL version 420,2013-03-01 07:52:00,
2013-03-01 01:58:00,35.8,8.1,29.74,NW,315,1.4,2.5,31,0.00,,,0.00,WSDL version 420,2013-03-01 07:58:00,
2013-03-01 02:04:00,35.8,8.1,29.74,NW,306,4.0,6.3,31,0.00,,,0.00,WSDL version 420,2013-03-01 08:04:00,
2013-03-01 02:10:00,35.8,8.1,29.74,WNW,293,2.0,6.3,31,0.00,,,0.00,WSDL version 420,2013-03-01 08:10:00,
2013-03-01 02:16:00,35.8,8.1,29.74,West,270,1.8,4.0,31,0.00,,,0.00,WSDL version 420,2013-03-01 08:16:00,
2013-03-01 02:22:00,35.8,8.1,29.74,NW,308,2.2,4.0,31,0.00,,,0.00,WSDL version 420,2013-03-01 08:22:00,
2013-03-01 02:28:00,35.7,8.0,29.74,NW,326,3.2,3.6,31,0.00,,,0.00,WSDL version 420,2013-03-01 08:28:00,
2013-03-01 02:34:00,35.6,7.9,29.74,NNW,334,2.8,6.0,31,0.00,,,0.00,WSDL version 420,2013-03-01 08:34:00,
2013-03-01 02:40:00,35.6,8.0,29.74,NW,315,1.3,6.0,31,0.00,,,0.00,WSDL version 420,2013-03-01 08:40:00,
2013-03-01 02:46:00,35.6,8.0,29.74,NNW,332,2.3,5.4,31,0.00,,,0.00,WSDL version 420,2013-03-01 08:46:00,
2013-03-01 02:52:00,35.8,8.1,29.74,NW,315,2.1,5.4,31,0.00,,,0.00,WSDL version 420,2013-03-01 08:52:00,
2013-03-01 02:58:00,35.8,8.7,29.74,WNW,293,2.9,4.9,32,0.00,,,0.00,WSDL version 420,2013-03-01 08:58:00,
2013-03-01 03:04:00,35.6,8.6,29.74,NW,323,2.8,4.9,32,0.00,,,0.00,WSDL version 420,2013-03-01 09:04:00,
2013-03-01 03:10:00,35.5,9.0,29.74,NW,315,1.9,3.8,33,0.00,,,0.00,WSDL version 420,2013-03-01 09:10:00,
2013-03-01 03:16:00,35.4,9.2,29.74,NW,315,2.0,5.4,33,0.00,,,0.00,WSDL version 420,2013-03-01 09:16:00,
2013-03-01 03:22:00,35.4,9.2,29.74,NW,311,4.0,5.8,33,0.00,,,0.00,WSDL version 420,2013-03-01 09:22:00,
2013-03-01 03:28:00,35.4,9.2,29.71,NW,315,1.9,5.8,33,0.00,,,0.00,WSDL version 420,2013-03-01 09:28:00,
2013-03-01 03:34:00,35.4,9.7,29.71,NW,315,2.5,4.7,34,0.00,,,0.00,WSDL version 420,2013-03-01 09:34:00,
2013-03-01 03:40:00,35.4,9.8,29.71,NE,34,2.6,4.7,34,0.00,,,0.00,WSDL version 420,2013-03-01 09:40:00,
2013-03-01 03:46:00,35.4,9.8,29.71,NW,321,2.5,4.0,34,0.00,,,0.00,WSDL version 420,2013-03-01 09:46:00,
2013-03-01 03:52:00,35.4,9.9,29.71,North,353,2.5,4.0,34,0.00,,,0.00,WSDL version 420,2013-03-01 09:52:00,
2013-03-01 03:58:00,35.4,10.0,29.71,NNW,338,1.6,4.0,34,0.00,,,0.00,WSDL version 420,2013-03-01 09:58:00,
2013-03-01 04:04:00,35.4,10.0,29.71,NW,324,2.3,3.6,35,0.00,,,0.00,WSDL version 420,2013-03-01 10:04:00,
2013-03-01 04:10:00,35.4,10.3,29.71,NNW,345,1.7,3.8,35,0.00,,,0.00,WSDL version 420,2013-03-01 10:10:00,
2013-03-01 04:16:00,35.4,10.5,29.71,West,270,1.6,3.4,35,0.00,,,0.00,WSDL version 420,2013-03-01 10:16:00,
2013-03-01 04:22:00,35.4,10.5,29.71,NNW,338,1.9,2.9,35,0.00,,,0.00,WSDL version 420,2013-03-01 10:22:00,
2013-03-01 04:28:00,35.3,10.6,29.71,NW,306,2.7,5.8,36,0.00,,,0.00,WSDL version 420,2013-03-01 10:28:00,
2013-03-01 04:34:00,35.3,10.5,29.71,NW,309,3.8,5.8,35,0.00,,,0.00,WSDL version 420,2013-03-01 10:34:00,
2013-03-01 04:40:00,35.4,10.9,29.71,North,349,2.2,5.4,35,0.00,,,0.00,WSDL version 420,2013-03-01 10:40:00,
2013-03-01 04:46:00,35.4,10.5,29.71,NW,315,3.1,5.4,35,0.00,,,0.00,WSDL version 420,2013-03-01 10:46:00,
2013-03-01 04:52:00,35.4,10.0,29.71,NNW,343,3.0,5.8,34,0.00,,,0.00,WSDL version 420,2013-03-01 10:52:00,
2013-03-01 04:58:00,35.4,9.8,29.71,NW,306,3.0,6.3,34,0.00,,,0.00,WSDL version 420,2013-03-01 10:58:00,
2013-03-01 05:04:00,35.4,9.8,29.71,NW,315,2.8,6.3,34,0.00,,,0.00,WSDL version 420,2013-03-01 11:04:00,
2013-03-01 05:10:00,35.4,9.2,29.71,NNW,332,2.6,4.7,33,0.00,,,0.00,WSDL version 420,2013-03-01 11:10:00,
2013-03-01 05:16:00,35.4,9.2,29.71,NNW,345,2.7,5.8,33,0.00,,,0.00,WSDL version 420,2013-03-01 11:16:00,
2013-03-01 05:22:00,35.4,9.0,29.71,NNW,342,3.4,6.3,33,0.00,,,0.00,WSDL version 420,2013-03-01 11:22:00,
2013-03-01 05:28:00,35.4,9.0,29.71,NW,318,2.8,6.3,32,0.00,,,0.00,WSDL version 420,2013-03-01 11:28:00,
2013-03-01 05:34:00,35.2,9.0,29.71,NNW,338,2.7,6.0,33,0.00,,,0.00,WSDL version 420,2013-03-01 11:34:00,
2013-03-01 05:40:00,35.2,8.5,29.71,NNW,338,3.1,6.0,32,0.00,,,0.00,WSDL version 420,2013-03-01 11:40:00,
2013-03-01 05:46:00,35.3,8.5,29.71,NNW,334,2.0,4.3,32,0.00,,,0.00,WSDL version 420,2013-03-01 11:46:00,
2013-03-01 05:52:00,35.2,8.3,29.71,NNW,330,2.5,4.9,32,0.00,,,0.00,WSDL version 420,2013-03-01 11:52:00,
2013-03-01 05:58:00,35.1,8.2,29.71,North,360,2.4,4.3,32,0.00,,,0.00,WSDL version 420,2013-03-01 11:58:00,
2013-03-01 06:04:00,35.1,8.2,29.71,NNW,330,4.8,7.8,32,0.00,,,0.00,WSDL version 420,2013-03-01 12:04:00,
2013-03-01 06:10:00,35.1,8.2,29.71,WNW,296,2.1,7.8,32,0.00,,,0.00,WSDL version 420,2013-03-01 12:10:00,
2013-03-01 06:16:00,35.1,8.6,29.71,WNW,298,2.7,3.8,33,0.00,,,0.00,WSDL version 420,2013-03-01 12:16:00,
2013-03-01 06:22:00,35.1,8.8,29.71,NNW,338,3.0,3.8,33,0.00,,,0.00,WSDL version 420,2013-03-01 12:22:00,
2013-03-01 06:28:00,35.1,8.8,29.71,North,11,1.6,4.3,33,0.00,,,0.00,WSDL version 420,2013-03-01 12:28:00,
2013-03-01 06:34:00,35.1,8.8,29.71,NNW,338,2.3,3.1,33,0.00,,,0.00,WSDL version 420,2013-03-01 12:34:00,
2013-03-01 06:40:00,35.1,8.8,29.71,NNW,347,2.1,4.9,33,0.00,,,0.00,WSDL version 420,2013-03-01 12:40:00,
2013-03-01 06:46:00,35.1,8.8,29.71,NNW,330,2.7,5.4,33,0.00,,,0.00,WSDL version 420,2013-03-01 12:46:00,
2013-03-01 06:52:00,35.1,8.8,29.71,NNW,342,2.4,5.4,33,0.00,,,0.00,WSDL version 420,2013-03-01 12:52:00,
2013-03-01 06:58:00,35.1,8.8,29.71,NW,309,1.6,4.0,33,0.00,,,0.00,WSDL version 420,2013-03-01 12:58:00,
2013-03-01 07:04:00,35.1,8.8,29.71,NNW,338,1.1,2.9,33,0.00,,,0.00,WSDL version 420,2013-03-01 13:04:00,
2013-03-01 07:10:00,35.1,8.8,29.71,NW,311,2.8,2.9,33,0.00,,,0.00,WSDL version 420,2013-03-01 13:10:00,
2013-03-01 07:16:00,35.1,8.8,29.71,NNW,342,2.1,3.8,33,0.00,,,0.00,WSDL version 420,2013-03-01 13:16:00,
2013-03-01 07:22:00,35.1,8.8,29.71,NW,315,1.4,3.8,33,0.00,,,0.00,WSDL version 420,2013-03-01 13:22:00,
2013-03-01 07:28:00,35.2,8.9,29.71,NW,309,1.7,5.6,33,0.00,,,0.00,WSDL version 420,2013-03-01 13:28:00,
2013-03-01 07:34:00,35.1,8.9,29.71,NW,315,1.6,5.6,33,0.00,,,0.00,WSDL version 420,2013-03-01 13:34:00,
2013-03-01 07:40:00,35.2,9.0,29.71,NW,308,1.6,3.1,33,0.00,,,0.00,WSDL version 420,2013-03-01 13:40:00,
2013-03-01 07:46:00,35.2,9.2,29.74,WSW,255,3.7,4.7,33,0.00,,,0.00,WSDL version 420,2013-03-01 13:46:00,
2013-03-01 07:52:00,35.2,9.1,29.74,NW,326,2.5,4.9,33,0.00,,,0.00,WSDL version 420,2013-03-01 13:52:00,
2013-03-01 07:58:00,35.4,9.2,29.71,NNW,338,2.0,4.9,33,0.00,,,0.00,WSDL version 420,2013-03-01 13:58:00,
2013-03-01 08:04:00,35.4,9.2,29.71,NNW,330,1.7,3.8,33,0.00,,,0.00,WSDL version 420,2013-03-01 14:04:00,
2013-03-01 08:10:00,35.4,9.2,29.71,WNW,289,2.3,4.9,33,0.00,,,0.00,WSDL version 420,2013-03-01 14:10:00,
2013-03-01 08:16:00,35.4,9.2,29.74,NW,323,2.4,6.0,33,0.00,,,0.00,WSDL version 420,2013-03-01 14:16:00,
2013-03-01 08:22:00,35.5,9.2,29.74,NW,321,2.6,4.9,33,0.00,,,0.00,WSDL version 420,2013-03-01 14:22:00,
2013-03-01 08:28:00,35.6,9.3,29.74,NNW,332,2.6,4.9,33,0.00,,,0.00,WSDL version 420,2013-03-01 14:28:00,
2013-03-01 08:34:00,35.6,9.3,29.74,NW,315,3.3,4.9,33,0.00,,,0.00,WSDL version 420,2013-03-01 14:34:00,
2013-03-01 08:40:00,35.8,9.5,29.74,NNW,331,2.9,4.9,33,0.00,,,0.00,WSDL version 420,2013-03-01 14:40:00,
2013-03-01 08:46:00,35.8,9.0,29.74,WNW,284,3.6,5.8,32,0.00,,,0.00,WSDL version 420,2013-03-01 14:46:00,
2013-03-01 08:52:00,35.7,8.7,29.74,NNW,338,3.2,5.8,32,0.00,,,0.00,WSDL version 420,2013-03-01 14:52:00,
2013-03-01 08:58:00,35.8,8.8,29.74,NW,311,3.7,5.8,32,0.00,,,0.00,WSDL version 420,2013-03-01 14:58:00,
2013-03-01 09:04:00,36.0,9.0,29.74,West,263,4.0,5.8,32,0.00,,,0.00,WSDL version 420,2013-03-01 15:04:00,
2013-03-01 09:10:00,35.8,8.8,29.74,West,281,3.9,6.0,32,0.00,,,0.00,WSDL version 420,2013-03-01 15:10:00,
2013-03-01 09:16:00,35.8,8.8,29.74,NW,315,2.2,5.4,32,0.00,,,0.00,WSDL version 420,2013-03-01 15:16:00,
2013-03-01 09:22:00,35.8,8.8,29.74,WNW,293,4.6,6.0,32,0.00,,,0.00,WSDL version 420,2013-03-01 15:22:00,
2013-03-01 09:28:00,35.8,8.8,29.74,NW,304,2.9,5.8,32,0.00,,,0.00,WSDL version 420,2013-03-01 15:28:00,
2013-03-01 09:34:00,35.8,8.8,29.74,WNW,284,4.5,5.8,32,0.00,,,0.00,WSDL version 420,2013-03-01 15:34:00,
2013-03-01 09:40:00,36.0,9.0,29.74,NNW,338,3.4,5.8,32,0.00,,,0.00,WSDL version 420,2013-03-01 15:40:00,
2013-03-01 09:46:00,36.1,8.9,29.74,WNW,290,3.7,5.4,31,0.00,,,0.00,WSDL version 420,2013-03-01 15:46:00,
2013-03-01 09:52:00,36.1,8.5,29.74,WNW,287,3.6,6.5,31,0.00,,,0.00,WSDL version 420,2013-03-01 15:52:00,
2013-03-01 09:58:00,36.3,9.2,29.74,NE,34,2.5,6.0,32,0.00,,,0.00,WSDL version 420,2013-03-01 15:58:00,
2013-03-01 10:04:00,36.7,9.1,29.74,NW,306,4.1,4.9,31,0.00,,,0.00,WSDL version 420,2013-03-01 16:04:00,
2013-03-01 10:10:00,36.7,8.4,29.74,WNW,301,4.6,6.5,30,0.00,,,0.00,WSDL version 420,2013-03-01 16:10:00,
2013-03-01 10:16:00,36.5,8.3,29.74,WNW,288,3.5,6.7,31,0.00,,,0.00,WSDL version 420,2013-03-01 16:16:00,
2013-03-01 10:22:00,36.5,8.1,29.74,NW,324,3.0,6.7,30,0.00,,,0.00,WSDL version 420,2013-03-01 16:22:00,
2013-03-01 10:28:00,36.3,8.0,29.74,NNW,329,3.0,6.5,30,0.00,,,0.00,WSDL version 420,2013-03-01 16:28:00,
2013-03-01 10:34:00,36.6,8.9,29.74,NW,306,2.4,4.9,31,0.00,,,0.00,WSDL version 420,2013-03-01 16:34:00,
2013-03-01 10:40:00,37.3,9.0,29.74,NNE,29,2.4,4.3,30,0.00,,,0.00,WSDL version 420,2013-03-01 16:40:00,
2013-03-01 10:46:00,37.6,8.9,29.74,NW,324,4.3,4.9,30,0.00,,,0.00,WSDL version 420,2013-03-01 16:46:00,
2013-03-01 10:52:00,37.6,8.9,29.74,NW,309,3.5,6.5,30,0.00,,,0.00,WSDL version 420,2013-03-01 16:52:00,
2013-03-01 10:58:00,37.7,9.0,29.74,NW,312,3.5,5.8,30,0.00,,,0.00,WSDL version 420,2013-03-01 16:58:00,
2013-03-01 11:04:00,37.9,8.5,29.74,WNW,298,3.1,6.0,29,0.00,,,0.00,WSDL version 420,2013-03-01 17:04:00,
2013-03-01 11:10:00,38.0,8.6,29.74,WNW,296,3.3,5.8,29,0.00,,,0.00,WSDL version 420,2013-03-01 17:10:00,
2013-03-01 11:16:00,38.2,8.7,29.74,NW,309,3.4,6.3,29,0.00,,,0.00,WSDL version 420,2013-03-01 17:16:00,
2013-03-01 11:22:00,38.3,8.8,29.74,NNW,332,4.6,7.6,29,0.00,,,0.00,WSDL version 420,2013-03-01 17:22:00,
2013-03-01 11:28:00,38.6,9.1,29.74,West,281,4.3,6.3,29,0.00,,,0.00,WSDL version 420,2013-03-01 17:28:00,
2013-03-01 11:34:00,39.0,9.4,29.74,WNW,289,3.9,5.8,29,0.00,,,0.00,WSDL version 420,2013-03-01 17:34:00,
2013-03-01 11:40:00,38.6,9.1,29.74,West,270,3.2,5.8,29,0.00,,,0.00,WSDL version 420,2013-03-01 17:40:00,
2013-03-01 11:46:00,38.1,8.6,29.74,NW,311,2.3,7.4,29,0.00,,,0.00,WSDL version 420,2013-03-01 17:46:00,
2013-03-01 11:52:00,37.7,8.3,29.74,WNW,287,4.9,6.5,29,0.00,,,0.00,WSDL version 420,2013-03-01 17:52:00,
2013-03-01 11:58:00,37.4,8.0,29.74,NW,311,3.4,6.0,29,0.00,,,0.00,WSDL version 420,2013-03-01 17:58:00,
2013-03-01 12:04:00,37.3,8.5,29.74,West,274,3.1,7.4,30,0.00,,,0.00,WSDL version 420,2013-03-01 18:04:00,
2013-03-01 12:10:00,37.3,8.7,29.74,West,280,3.8,7.4,30,0.00,,,0.00,WSDL version 420,2013-03-01 18:10:00,
2013-03-01 12:16:00,37.3,8.7,29.74,West,270,4.5,8.1,30,0.00,,,0.00,WSDL version 420,2013-03-01 18:16:00,
2013-03-01 12:22:00,37.4,8.6,29.74,NNW,334,3.4,6.5,30,0.00,,,0.00,WSDL version 420,2013-03-01 18:22:00,
2013-03-01 12:28:00,37.6,8.9,29.74,NW,305,3.7,6.0,30,0.00,,,0.00,WSDL version 420,2013-03-01 18:28:00,
2013-03-01 12:34:00,37.6,8.9,29.74,WNW,300,4.5,6.5,30,0.00,,,0.00,WSDL version 420,2013-03-01 18:34:00,
2013-03-01 12:40:00,37.0,8.6,29.74,WNW,289,4.9,7.4,30,0.00,,,0.00,WSDL version 420,2013-03-01 18:40:00,
2013-03-01 12:46:00,36.9,8.5,29.74,NNW,330,3.5,7.4,31,0.00,,,0.00,WSDL version 420,2013-03-01 18:46:00,
2013-03-01 12:52:00,37.0,9.2,29.74,West,274,4.2,6.5,31,0.00,,,0.00,WSDL version 420,2013-03-01 18:52:00,
2013-03-01 12:58:00,37.0,9.1,29.74,NW,308,2.8,6.5,31,0.00,,,0.00,WSDL version 420,2013-03-01 18:58:00,
2013-03-01 13:04:00,37.2,9.3,29.74,NW,311,3.8,7.8,31,0.00,,,0.00,WSDL version 420,2013-03-01 19:04:00,
2013-03-01 13:10:00,37.2,9.4,29.74,WNW,302,3.8,7.8,31,0.00,,,0.00,WSDL version 420,2013-03-01 19:10:00,
2013-03-01 13:16:00,37.4,9.1,29.74,WNW,285,3.9,6.3,31,0.00,,,0.00,WSDL version 420,2013-03-01 19:16:00,
2013-03-01 13:22:00,37.5,9.6,29.74,NW,304,3.0,6.3,31,0.00,,,0.00,WSDL version 420,2013-03-01 19:22:00,
2013-03-01 13:28:00,37.7,9.0,29.74,NW,308,3.9,6.3,30,0.00,,,0.00,WSDL version 420,2013-03-01 19:28:00,
2013-03-01 13:34:00,37.9,9.2,29.74,NW,315,3.9,7.4,30,0.00,,,0.00,WSDL version 420,2013-03-01 19:34:00,
2013-03-01 13:40:00,38.0,9.3,29.74,WNW,283,3.8,7.4,30,0.00,,,0.00,WSDL version 420,2013-03-01 19:40:00,
2013-03-01 13:46:00,38.3,9.6,29.74,NW,321,2.6,5.8,30,0.00,,,0.00,WSDL version 420,2013-03-01 19:46:00,
2013-03-01 13:52:00,38.5,9.1,29.74,West,279,4.6,7.8,29,0.00,,,0.00,WSDL version 420,2013-03-01 19:52:00,
2013-03-01 13:58:00,38.5,9.0,29.74,NNW,342,3.8,7.8,29,0.00,,,0.00,WSDL version 420,2013-03-01 19:58:00,
2013-03-01 14:04:00,38.5,9.0,29.74,WNW,284,2.8,5.8,29,0.00,,,0.00,WSDL version 420,2013-03-01 20:04:00,
2013-03-01 14:10:00,38.4,8.9,29.74,WNW,293,3.1,5.4,29,0.00,,,0.00,WSDL version 420,2013-03-01 20:10:00,
2013-03-01 14:16:00,38.0,8.6,29.74,WNW,284,5.9,6.5,29,0.00,,,0.00,WSDL version 420,2013-03-01 20:16:00,
2013-03-01 14:22:00,37.8,8.9,29.74,West,270,3.6,6.5,30,0.00,,,0.00,WSDL version 420,2013-03-01 20:22:00,
2013-03-01 14:28:00,37.8,8.7,29.74,West,278,4.6,7.4,29,0.00,,,0.00,WSDL version 420,2013-03-01 20:28:00,
2013-03-01 14:34:00,37.6,8.2,29.74,West,280,4.8,7.2,29,0.00,,,0.00,WSDL version 420,2013-03-01 20:34:00,
2013-03-01 14:40:00,37.6,8.3,29.74,West,260,4.4,6.3,29,0.00,,,0.00,WSDL version 420,2013-03-01 20:40:00,
2013-03-01 14:46:00,37.8,8.3,29.74,NW,315,5.2,6.3,29,0.00,,,0.00,WSDL version 420,2013-03-01 20:46:00,
2013-03-01 14:52:00,37.8,8.3,29.74,NW,324,2.8,7.8,29,0.00,,,0.00,WSDL version 420,2013-03-01 20:52:00,
2013-03-01 14:58:00,37.8,8.3,29.74,WNW,293,2.6,5.6,29,0.00,,,0.00,WSDL version 420,2013-03-01 20:58:00,
2013-03-01 15:04:00,37.7,8.3,29.74,WNW,293,5.8,7.6,29,0.00,,,0.00,WSDL version 420,2013-03-01 21:04:00,
2013-03-01 15:10:00,37.4,8.0,29.74,WNW,297,4.2,8.7,29,0.00,,,0.00,WSDL version 420,2013-03-01 21:10:00,
2013-03-01 15:16:00,37.4,8.2,29.74,WNW,298,4.2,6.3,30,0.00,,,0.00,WSDL version 420,2013-03-01 21:16:00,
2013-03-01 15:22:00,37.2,8.6,29.74,WNW,300,3.2,6.3,30,0.00,,,0.00,WSDL version 420,2013-03-01 21:22:00,
2013-03-01 15:28:00,37.0,8.8,29.74,NW,315,2.9,6.3,31,0.00,,,0.00,WSDL version 420,2013-03-01 21:28:00,
2013-03-01 15:34:00,36.9,9.0,29.74,West,266,2.3,6.3,31,0.00,,,0.00,WSDL version 420,2013-03-01 21:34:00,
2013-03-01 15:40:00,36.9,9.0,29.74,West,276,3.9,5.4,31,0.00,,,0.00,WSDL version 420,2013-03-01 21:40:00,
2013-03-01 15:46:00,36.9,9.0,29.74,West,261,3.4,4.9,31,0.00,,,0.00,WSDL version 420,2013-03-01 21:46:00,
2013-03-01 15:52:00,36.9,9.0,29.74,West,270,3.0,4.9,31,0.00,,,0.00,WSDL version 420,2013-03-01 21:52:00,
2013-03-01 15:58:00,37.0,9.2,29.74,West,264,3.5,4.3,31,0.00,,,0.00,WSDL version 420,2013-03-01 21:58:00,
2013-03-01 16:04:00,37.0,9.2,29.74,West,270,2.7,5.6,31,0.00,,,0.00,WSDL version 420,2013-03-01 22:04:00,
2013-03-01 16:10:00,37.1,9.3,29.74,WNW,296,3.9,6.5,31,0.00,,,0.00,WSDL version 420,2013-03-01 22:10:00,
2013-03-01 16:16:00,37.0,9.2,29.74,NW,326,4.4,7.6,31,0.00,,,0.00,WSDL version 420,2013-03-01 22:16:00,
2013-03-01 16:22:00,36.9,8.5,29.74,NW,311,3.2,7.6,30,0.00,,,0.00,WSDL version 420,2013-03-01 22:22:00,
2013-03-01 16:28:00,36.8,8.7,29.74,WNW,290,2.8,7.4,31,0.00,,,0.00,WSDL version 420,2013-03-01 22:28:00,
2013-03-01 16:34:00,36.7,8.9,29.74,NW,304,2.8,4.9,31,0.00,,,0.00,WSDL version 420,2013-03-01 22:34:00,
2013-03-01 16:40:00,36.7,8.9,29.74,NNW,338,2.9,4.3,31,0.00,,,0.00,WSDL version 420,2013-03-01 22:40:00,
2013-03-01 16:46:00,36.7,8.2,29.74,WNW,302,2.8,6.3,30,0.00,,,0.00,WSDL version 420,2013-03-01 22:46:00,
2013-03-01 16:52:00,36.6,8.1,29.74,WNW,293,3.8,6.3,30,0.00,,,0.00,WSDL version 420,2013-03-01 22:52:00,
2013-03-01 16:58:00,36.4,7.9,29.74,West,281,3.2,6.3,30,0.00,,,0.00,WSDL version 420,2013-03-01 22:58:00,
2013-03-01 17:04:00,36.3,7.8,29.74,NW,311,2.8,5.8,30,0.00,,,0.00,WSDL version 420,2013-03-01 23:04:00,
2013-03-01 17:10:00,36.3,8.0,29.74,NW,324,1.3,4.7,30,0.00,,,0.00,WSDL version 420,2013-03-01 23:10:00,
2013-03-01 17:16:00,36.5,8.7,29.77,NNW,342,1.4,3.4,31,0.00,,,0.00,WSDL version 420,2013-03-01 23:16:00,
2013-03-01 17:22:00,36.4,8.6,29.77,North,354,2.7,7.4,31,0.00,,,0.00,WSDL version 420,2013-03-01 23:22:00,
2013-03-01 17:28:00,36.3,8.6,29.77,NW,323,2.2,7.4,31,0.00,,,0.00,WSDL version 420,2013-03-01 23:28:00,
2013-03-01 17:34:00,36.2,8.6,29.77,NNW,345,3.9,5.6,32,0.00,,,0.00,WSDL version 420,2013-03-01 23:34:00,
2013-03-01 17:40:00,36.1,8.7,29.77,NW,305,5.0,6.7,31,0.00,,,0.00,WSDL version 420,2013-03-01 23:40:00,
2013-03-01 17:46:00,35.9,8.4,29.77,NW,315,2.8,6.7,32,0.00,,,0.00,WSDL version 420,2013-03-01 23:46:00,
2013-03-01 17:52:00,35.8,8.5,29.77,WNW,293,4.1,6.5,32,0.00,,,0.00,WSDL version 420,2013-03-01 23:52:00,
2013-03-01 17:58:00,35.6,8.6,29.77,WNW,297,3.5,5.8,32,0.00,,,0.00,WSDL version 420,2013-03-01 23:58:00,
2013-03-01 18:04:00,35.6,8.6,29.77,NW,320,2.8,5.4,32,0.00,,,0.00,WSDL version 420,2013-03-02 00:04:00,
2013-03-01 18:10:00,35.6,8.6,29.77,West,270,3.0,5.8,32,0.00,,,0.00,WSDL version 420,2013-03-02 00:10:00,
2013-03-01 18:16:00,35.5,8.6,29.80,NW,315,1.7,5.8,32,0.00,,,0.00,WSDL version 420,2013-03-02 00:16:00,
2013-03-01 18:22:00,35.4,8.5,29.80,West,281,3.1,4.0,32,0.00,,,0.00,WSDL version 420,2013-03-02 00:22:00,
2013-03-01 18:28:00,35.4,8.5,29.77,NW,306,1.9,4.3,32,0.00,,,0.00,WSDL version 420,2013-03-02 00:28:00,
2013-03-01 18:34:00,35.4,8.5,29.77,NW,309,2.5,4.3,32,0.00,,,0.00,WSDL version 420,2013-03-02 00:34:00,
2013-03-01 18:40:00,35.4,8.5,29.77,WNW,293,2.6,5.4,32,0.00,,,0.00,WSDL version 420,2013-03-02 00:40:00,
2013-03-01 18:46:00,35.6,8.0,29.77,WNW,289,2.8,4.3,31,0.00,,,0.00,WSDL version 420,2013-03-02 00:46:00,
2013-03-01 18:52:00,35.6,7.9,29.77,NW,304,2.2,3.6,31,0.00,,,0.00,WSDL version 420,2013-03-02 00:52:00,
2013-03-01 18:58:00,35.6,7.9,29.80,West,281,3.1,4.3,31,0.00,,,0.00,WSDL version 420,2013-03-02 00:58:00,
2013-03-01 19:04:00,35.6,7.2,29.80,WNW,298,2.8,4.3,30,0.00,,,0.00,WSDL version 420,2013-03-02 01:04:00,
2013-03-01 19:10:00,35.6,7.2,29.80,WNW,293,2.8,5.8,30,0.00,,,0.00,WSDL version 420,2013-03-02 01:10:00,
2013-03-01 19:16:00,35.6,7.2,29.80,WNW,290,2.7,6.3,30,0.00,,,0.00,WSDL version 420,2013-03-02 01:16:00,
2013-03-01 19:22:00,35.6,7.2,29.80,North,360,2.5,5.8,30,0.00,,,0.00,WSDL version 420,2013-03-02 01:22:00,
2013-03-01 19:28:00,35.6,7.2,29.80,West,270,3.0,6.0,30,0.00,,,0.00,WSDL version 420,2013-03-02 01:28:00,
2013-03-01 19:34:00,35.6,7.2,29.80,WNW,296,3.9,6.3,30,0.00,,,0.00,WSDL version 420,2013-03-02 01:34:00,
2013-03-01 19:40:00,35.6,7.2,29.80,WNW,293,3.3,6.5,30,0.00,,,0.00,WSDL version 420,2013-03-02 01:40:00,
2013-03-01 19:46:00,35.6,7.2,29.80,NW,323,3.4,5.8,30,0.00,,,0.00,WSDL version 420,2013-03-02 01:46:00,
2013-03-01 19:52:00,35.6,7.2,29.80,WNW,302,2.7,5.8,30,0.00,,,0.00,WSDL version 420,2013-03-02 01:52:00,
2013-03-01 19:58:00,35.6,7.2,29.80,WNW,286,3.5,6.0,30,0.00,,,0.00,WSDL version 420,2013-03-02 01:58:00,
2013-03-01 20:04:00,35.6,7.2,29.80,WNW,293,2.8,6.0,30,0.00,,,0.00,WSDL version 420,2013-03-02 02:04:00,
2013-03-01 20:10:00,35.6,7.2,29.80,NW,315,3.7,6.5,30,0.00,,,0.00,WSDL version 420,2013-03-02 02:10:00,
2013-03-01 20:16:00,35.6,7.2,29.77,NW,308,2.9,6.3,30,0.00,,,0.00,WSDL version 420,2013-03-02 02:16:00,
2013-03-01 20:22:00,35.6,7.2,29.77,NW,307,4.1,5.8,30,0.00,,,0.00,WSDL version 420,2013-03-02 02:22:00,
2013-03-01 20:28:00,35.6,7.2,29.77,WNW,293,4.3,7.2,30,0.00,,,0.00,WSDL version 420,2013-03-02 02:28:00,
2013-03-01 20:34:00,35.6,7.2,29.77,WNW,293,4.5,7.8,30,0.00,,,0.00,WSDL version 420,2013-03-02 02:34:00,
2013-03-01 20:40:00,35.6,7.2,29.77,West,276,5.0,7.8,30,0.00,,,0.00,WSDL version 420,2013-03-02 02:40:00,
2013-03-01 20:46:00,35.4,7.1,29.80,WNW,301,4.7,8.1,30,0.00,,,0.00,WSDL version 420,2013-03-02 02:46:00,
2013-03-01 20:52:00,35.4,7.1,29.80,North,353,4.5,8.1,30,0.00,,,0.00,WSDL version 420,2013-03-02 02:52:00,
2013-03-01 20:58:00,35.4,7.1,29.80,NNE,14,2.9,7.6,30,0.00,,,0.00,WSDL version 420,2013-03-02 02:58:00,
2013-03-01 21:04:00,35.4,7.1,29.80,NW,326,3.1,5.8,30,0.00,,,0.00,WSDL version 420,2013-03-02 03:04:00,
2013-03-01 21:10:00,35.3,7.0,29.80,NW,309,3.7,5.8,30,0.00,,,0.00,WSDL version 420,2013-03-02 03:10:00,
2013-03-01 21:16:00,35.2,6.9,29.77,NNW,338,3.7,5.4,30,0.00,,,0.00,WSDL version 420,2013-03-02 03:16:00,
2013-03-01 21:22:00,35.1,6.7,29.77,NNW,330,4.3,6.3,30,0.00,,,0.00,WSDL version 420,2013-03-02 03:22:00,
2013-03-01 21:28:00,35.1,6.7,29.80,NNW,331,3.5,6.3,30,0.00,,,0.00,WSDL version 420,2013-03-02 03:28:00,
2013-03-01 21:34:00,35.0,7.2,29.80,NW,326,4.3,6.3,31,0.00,,,0.00,WSDL version 420,2013-03-02 03:34:00,
2013-03-01 21:40:00,34.9,7.3,29.80,WNW,293,3.6,6.3,31,0.00,,,0.00,WSDL version 420,2013-03-02 03:40:00,
2013-03-01 21:46:00,34.7,7.1,29.80,NNW,338,4.4,6.0,31,0.00,,,0.00,WSDL version 420,2013-03-02 03:46:00,
2013-03-01 21:52:00,34.6,7.1,29.80,NE,34,3.4,7.4,31,0.00,,,0.00,WSDL version 420,2013-03-02 03:52:00,
2013-03-01 21:58:00,34.6,7.6,29.80,NNW,338,3.1,8.1,32,0.00,,,0.00,WSDL version 420,2013-03-02 03:58:00,
2013-03-01 22:04:00,34.3,7.5,29.80,NW,315,3.7,7.4,32,0.00,,,0.00,WSDL version 420,2013-03-02 04:04:00,
2013-03-01 22:10:00,34.3,7.5,29.80,NW,304,3.3,7.4,32,0.00,,,0.00,WSDL version 420,2013-03-02 04:10:00,
2013-03-01 22:16:00,34.3,8.0,29.80,NW,315,4.3,6.3,33,0.00,,,0.00,WSDL version 420,2013-03-02 04:16:00,
2013-03-01 22:22:00,34.2,8.0,29.80,NW,308,2.5,6.3,33,0.00,,,0.00,WSDL version 420,2013-03-02 04:22:00,
2013-03-01 22:28:00,34.0,7.9,29.80,WNW,293,2.3,4.7,33,0.00,,,0.00,WSDL version 420,2013-03-02 04:28:00,
2013-03-01 22:34:00,34.0,7.9,29.80,North,349,2.0,3.8,33,0.00,,,0.00,WSDL version 420,2013-03-02 04:34:00,
2013-03-01 22:40:00,34.0,8.0,29.80,North,349,1.0,3.6,33,0.00,,,0.00,WSDL version 420,2013-03-02 04:40:00,
2013-03-01 22:46:00,34.0,8.6,29.80,NNW,338,2.9,4.7,34,0.00,,,0.00,WSDL version 420,2013-03-02 04:46:00,
2013-03-01 22:52:00,34.0,8.7,29.80,North,351,1.2,4.7,34,0.00,,,0.00,WSDL version 420,2013-03-02 04:52:00,
2013-03-01 22:58:00,33.8,8.9,29.80,NW,315,1.6,5.4,35,0.00,,,0.00,WSDL version 420,2013-03-02 04:58:00,
2013-03-01 23:01:00,33.8,9.0,29.80,WNW,298,2.2,5.4,35,0.00,,,0.00,WSDL version 420,2013-03-02 05:01:00,
2013-03-01 23:07:00,33.7,9.2,29.80,NW,304,2.5,4.0,36,0.00,,,0.00,WSDL version 420,2013-03-02 05:07:00,
2013-03-01 23:10:00,33.6,9.6,29.80,West,279,3.0,5.4,36,0.00,,,0.00,WSDL version 420,2013-03-02 05:10:00,
2013-03-01 23:16:00,33.5,10.1,29.77,WNW,285,3.1,5.4,38,0.00,,,0.00,WSDL version 420,2013-03-02 05:16:00,
2013-03-01 23:22:00,33.4,10.0,29.77,WNW,293,2.3,6.0,37,0.00,,,0.00,WSDL version 420,2013-03-02 05:22:00,
2013-03-01 23:28:00,33.4,10.0,29.80,NW,315,2.7,3.4,37,0.00,,,0.00,WSDL version 420,2013-03-02 05:28:00,
2013-03-01 23:34:00,33.3,9.8,29.80,West,270,2.0,3.8,37,0.00,,,0.00,WSDL version 420,2013-03-02 05:34:00,
2013-03-01 23:40:00,33.3,10.4,29.80,WNW,293,2.9,4.0,38,0.00,,,0.00,WSDL version 420,2013-03-02 05:40:00,
2013-03-01 23:46:00,33.2,11.2,29.77,NW,309,2.7,4.7,40,0.00,,,0.00,WSDL version 420,2013-03-02 05:46:00,
2013-03-01 23:49:00,33.1,11.4,29.77,West,270,3.7,4.7,40,0.00,,,0.00,WSDL version 420,2013-03-02 05:49:00,
2013-03-01 23:55:00,32.8,11.3,29.77,NW,304,2.6,4.3,41,0.00,,,0.00,WSDL version 420,2013-03-02 05:55:00,